RH
69 69 70 67 69 83 89 84 84 82 71 66 64 58 44 25 13 9 9 9 8 8 7 7 5 5 7 8 9 10 14 18 20 17 14 13 12 11 11 10 10 11 13 14 13 11 10 10 10 9 8 7 8 8 8 8 8 8 8 8 8 9 9
66 69 69 64 64 73 83 85 82 78 74 70 69 69 59 39 20 11 9 9 8 8 8 7 6 5 6 7 8 10 12 16 18 18 16 13 12 11 10 10 8 8 9 10 9 8 7 7 7 7 7 7 7 7 7 7 8 8 8 8 8 8 8
66 70 70 66 63 65 74 86 85 77 74 72 73 77 74 59 36 18 11 9 9 8 7 7 7 5 6 7 8 8 10 14 16 18 18 15 13 12 10 10 9 8 8 8 7 6 6 6 6 6 6 7 7 7 7 7 7 8 8 8 8 8 8
72 75 78 76 72 65 66 81 90 83 75 72 74 81 84 76 56 33 17 9 8 9 8 7 7 6 5 6 8 8 10 12 13 16 19 18 15 12 11 10 9 9 8 8 7 6 6 6 6 6 5 6 6 6 6 6 6 6 6 7 7 7 8
76 81 87 88 85 76 70 80 90 87 80 74 72 77 82 78 65 49 33 18 9 8 9 7 6 6 6 6 7 8 9 10 12 13 16 18 18 16 14 12 9 9 8 8 8 7 6 6 5 5 5 5 5 5 5 5 5 5 5 6 6 6 7
77 86 92 94 93 88 83 83 85 86 85 79 73 72 73 69 61 54 48 34 18 9 8 8 7 6 6 6 7 8 10 10 10 11 13 15 18 19 18 15 12 10 9 8 8 8 8 7 5 5 5 4 4 4 4 4 4 4 5 5 6 6 6
79 89 93 95 96 94 91 83 76 78 86 85 78 75 73 67 61 60 58 50 36 19 8 7 8 7 6 6 7 8 10 11 10 10 11 12 16 19 19 17 15 13 11 9 9 9 9 8 7 6 5 4 4 4 3 3 3 4 4 5 6 7 7
82 88 90 95 98 97 93 87 78 76 83 88 84 80 75 69 68 71 69 66 58 38 19 11 7 7 8 6 8 10 10 12 11 9 10 10 13 16 18 18 16 15 14 12 11 10 9 9 8 7 6 5 4 4 3 3 3 3 4 5 6 8 10
84 87 87 92 98 99 94 91 89 85 85 88 88 85 80 74 74 76 73 73 68 54 43 33 15 6 9 8 7 10 12 12 12 9 9 9 10 13 15 17 17 15 14 14 12 10 9 9 8 7 7 6 5 5 3 3 3 3 4 5 7 10 13
83 88 87 86 89 98 99 94 94 92 87 86 88 90 89 83 78 75 72 72 73 66 58 51 30 8 6 10 8 9 11 12 13 10 8 8 9 10 12 15 16 15 15 14 12 11 10 9 8 8 7 6 6 6 4 4 4 3 4 5 7 12 15
81 91 84 65 57 77 96 98 95 94 91 89 90 91 92 87 79 76 74 73 78 74 62 57 46 22 7 6 7 9 11 12 13 12 9 8 8 9 10 12 13 14 15 14 13 12 10 9 8 8 7 7 7 6 5 4 4 4 4 4 8 13 17
77 93 84 54 33 48 77 94 98 94 93 95 94 93 91 88 84 82 78 73 75 74 63 57 53 42 30 18 8 7 9 10 12 12 11 9 8 8 8 9 11 12 14 15 14 13 11 10 9 8 7 8 7 7 5 4 4 4 4 5 7 13 18
66 87 89 65 42 39 53 78 98 99 96 97 97 96 92 87 86 86 83 78 72 67 61 52 43 38 35 24 14 10 8 8 11 12 12 11 8 8 8 8 9 10 12 13 14 14 13 11 10 9 9 8 8 8 6 5 4 4 4 5 7 12 17
52 72 81 74 62 47 36 55 88 100 99 99 99 98 94 86 82 83 85 86 81 74 69 61 48 36 24 12 9 10 9 7 8 9 11 11 9 8 8 8 8 8 10 11 12 13 13 12 11 10 9 9 9 9 8 6 6 5 4 4 5 10 16
38 51 61 63 60 45 23 33 72 95 98 99 100 99 95 88 82 80 82 87 88 83 79 74 65 52 37 20 8 6 8 9 8 7 8 9 10 9 8 8 8 8 8 9 10 11 11 11 11 9 9 9 9 10 9 9 9 7 6 5 4 7 12
27 31 37 39 38 31 17 20 52 84 95 97 99 100 96 89 84 80 79 83 86 88 86 83 76 65 54 42 23 7 6 9 9 7 6 6 7 8 8 8 8 8 8 8 8 9 10 10 10 9 9 9 9 10 10 10 10 9 8 6 5 5 8
22 21 23 24 25 26 21 15 29 62 85 89 90 95 98 94 88 83 80 78 79 85 88 88 85 75 64 59 45 23 8 6 8 8 6 5 5 5 6 7 7 7 8 8 8 8 8 9 9 8 8 9 9 9 10 10 10 10 9 7 6 5 5
16 17 16 17 19 22 22 15 14 35 62 72 72 76 86 93 92 88 84 78 74 77 83 88 90 83 73 67 60 42 20 8 7 8 7 7 6 5 4 5 6 7 7 7 8 7 7 8 8 8 8 8 8 9 9 9 9 9 9 8 7 6 5
10 13 13 14 16 18 21 20 13 15 31 46 50 53 63 79 89 88 83 78 72 70 75 84 89 86 81 76 69 58 40 19 7 6 8 8 7 6 5 4 4 5 6 7 8 7 7 7 7 7 7 7 7 8 8 8 8 8 8 8 7 6 5
11 10 11 11 13 16 18 20 19 17 17 22 30 37 44 57 73 82 82 78 72 68 68 74 80 84 86 82 75 70 60 40 20 8 4 7 8 7 5 5 4 4 5 6 7 7 7 7 7 7 7 7 7 7 7 7 7 7 7 7 7 6 5
14 12 11 11 14 18 19 20 25 26 20 16 19 25 31 38 52 66 76 79 79 75 67 64 73 85 87 81 78 76 70 59 43 25 10 7 9 9 8 7 5 4 4 5 6 7 7 7 7 7 6 6 6 6 6 6 7 7 7 7 6 6 5
16 14 13 13 15 21 26 31 37 37 30 23 22 23 24 27 35 46 61 73 80 81 72 62 68 84 88 83 80 78 74 70 63 49 34 24 17 11 8 9 8 7 6 4 5 6 7 7 8 7 7 7 6 6 6 6 6 6 6 6 6 6 5
21 19 17 18 22 26 33 44 53 52 43 34 30 29 26 24 25 31 44 59 69 76 77 70 66 74 82 80 77 77 78 78 76 68 58 47 32 15 6 7 9 9 9 8 6 5 5 6 7 7 7 7 6 6 6 6 6 6 6 6 6 6 5
29 26 23 25 32 37 43 52 61 63 59 50 42 37 33 31 27 25 31 44 53 60 69 72 67 66 68 67 68 76 80 78 81 83 75 63 50 35 21 14 11 9 8 9 9 7 6 6 6 6 7 7 7 7 7 7 7 7 7 7 6 6 6
40 36 31 31 38 46 51 58 63 65 65 64 59 48 40 38 36 32 30 34 40 42 47 57 65 66 66 65 65 69 74 75 79 87 87 78 66 55 44 34 25 17 10 8 9 9 9 7 6 6 6 6 6 7 7 8 8 8 7 7 7 7 6
45 43 40 37 41 50 57 62 65 65 64 67 70 65 55 48 45 42 37 37 41 40 36 43 54 59 64 72 74 67 66 72 76 79 85 86 76 67 62 56 47 35 19 10 8 8 9 10 9 8 7 6 6 6 6 7 8 9 8 8 8 8 7
46 44 44 43 43 49 58 65 68 70 68 68 71 74 70 61 53 48 45 45 48 48 43 45 53 56 57 64 71 71 67 68 72 76 84 89 83 74 73 75 70 58 39 23 15 10 8 9 9 10 10 9 7 6 6 6 7 8 8 9 8 8 8
53 46 43 44 45 47 54 62 68 72 73 72 72 73 74 71 64 58 54 53 53 54 52 51 53 58 59 51 49 59 66 68 72 78 86 94 94 87 84 85 82 75 63 47 33 22 16 14 15 14 11 10 10 9 7 6 7 6 7 8 8 8 8
57 50 43 41 43 44 47 54 62 68 72 73 74 74 76 76 73 68 64 60 57 56 58 57 54 55 61 56 45 50 63 69 72 76 78 85 91 93 92 91 86 80 75 67 53 37 27 26 27 22 13 9 11 12 11 10 9 8 7 6 7 8 7
44 45 43 41 39 39 40 47 56 62 65 69 72 74 77 79 78 77 74 70 67 62 60 61 59 55 58 60 55 57 65 71 74 78 77 74 73 75 79 87 89 83 80 78 67 49 39 40 42 36 23 12 9 11 13 14 12 11 10 8 7 7 6
24 28 34 38 37 34 32 38 50 58 59 62 66 70 74 79 84 87 85 80 76 72 67 63 60 57 56 58 59 64 70 71 69 71 73 72 67 64 68 81 91 90 89 87 78 65 58 60 61 54 38 21 11 10 11 13 14 14 13 12 10 9 8
11 14 19 27 34 34 28 27 37 50 54 56 59 62 65 72 81 89 93 91 85 81 79 74 66 60 57 57 60 64 68 72 71 65 62 64 65 67 77 89 92 92 94 94 88 81 78 78 77 71 55 35 24 18 14 12 14 14 14 13 13 12 11
5 6 9 16 26 33 31 24 23 32 41 48 53 56 55 58 68 78 87 94 94 90 87 84 78 73 67 61 60 62 65 72 77 71 62 59 58 63 78 88 85 84 90 96 95 89 85 86 89 83 66 46 31 21 14 12 11 11 13 13 13 13 12
4 4 4 6 13 23 31 30 24 21 24 31 40 47 45 44 52 64 73 83 93 96 95 89 82 80 80 73 67 65 65 69 75 75 73 69 59 53 64 77 79 78 81 88 95 93 87 88 91 84 66 48 33 21 14 11 10 9 10 11 12 12 12
4 5 4 3 5 10 19 28 29 25 21 21 26 33 36 36 42 52 61 69 79 88 98 98 89 82 82 80 76 73 68 66 70 75 80 82 72 57 57 69 77 75 74 79 89 96 94 91 88 81 68 53 41 31 22 15 11 11 11 12 11 10 10
5 4 4 4 4 4 5 11 18 21 21 20 21 23 27 31 36 43 51 58 66 74 85 97 99 93 87 83 80 77 73 70 70 71 75 84 83 68 59 67 75 73 68 69 77 89 98 96 88 82 74 61 50 42 32 23 19 17 13 11 10 8 9
14 9 6 4 3 4 4 3 5 8 11 16 20 21 21 23 28 35 41 47 54 61 68 79 90 96 96 92 87 83 80 76 73 69 71 82 88 77 63 66 74 73 68 66 68 78 90 97 95 89 81 69 60 51 40 31 29 28 22 17 14 11 9
18 16 14 10 5 3 4 4 3 3 3 6 13 18 20 20 21 26 32 38 43 48 52 58 68 78 89 97 96 91 88 84 76 69 68 76 84 81 70 65 67 69 68 63 59 63 72 81 92 96 90 80 73 67 56 44 40 40 35 27 22 19 13
Wind_Speed
31 30 29 27 25 24 23 22 22 21 19 18 16 15 14 15 17 19 20 21 22 23 24 25 25 24 22 20 18 17 18 18 19 19 19 18 17 16 15 15 14 14 13 13 13 14 14 13 13 13 13 13 13 12 12 11 11 11 11 11 11 10 10
32 31 30 28 26 25 24 23 24 23 22 21 19 17 16 15 16 19 21 22 22 23 24 25 26 26 24 22 19 18 19 19 19 19 19 19 18 17 16 15 14 13 12 12 13 13 14 13 13 13 13 13 13 13 12 12 11 11 12 11 11 11 11
31 30 29 29 28 27 26 25 24 24 24 23 22 19 17 17 17 18 21 23 23 24 24 26 27 27 26 23 21 20 20 20 20 19 20 20 20 19 18 16 15 14 13 13 13 13 14 13 13 13 13 13 13 13 13 13 12 12 12 12 12 12 11
28 27 26 27 28 29 27 26 26 26 26 26 25 23 21 20 20 20 21 23 25 25 25 26 27 28 27 25 23 21 21 21 21 21 21 21 21 20 19 17 16 15 15 15 14 14 14 14 14 14 14 14 14 14 13 13 13 13 13 12 12 12 12
26 26 25 26 27 28 28 27 28 28 29 29 29 28 27 25 24 23 22 22 24 26 27 28 28 29 28 27 25 23 23 23 23 22 22 22 21 21 20 19 18 17 16 16 15 14 14 14 14 14 15 14 14 14 14 14 14 13 13 13 12 12 12
26 26 26 26 27 28 29 29 29 29 30 31 31 31 30 28 27 26 24 23 24 27 28 29 29 29 29 28 27 26 25 24 24 24 23 22 22 21 21 21 20 19 18 17 16 15 15 14 15 15 15 16 15 15 15 14 14 14 14 14 13 13 12
28 28 28 27 27 28 29 30 30 29 29 30 31 31 31 30 29 27 26 24 24 26 28 30 30 30 30 30 29 27 27 26 26 26 25 24 23 23 22 22 21 20 20 19 18 17 16 15 15 16 16 17 17 16 15 15 14 15 15 14 14 13 13
30 31 29 28 28 29 30 30 29 29 29 30 31 32 32 32 31 29 28 27 25 25 27 30 32 32 32 32 31 29 28 28 28 28 27 25 24 24 23 22 22 22 21 20 19 19 18 17 16 16 17 17 18 17 16 15 15 15 16 15 15 14 13
32 32 31 29 29 29 30 30 29 30 31 31 31 32 32 32 32 31 30 29 28 26 25 27 31 34 35 34 33 32 30 29 29 29 28 26 26 25 25 24 24 23 22 22 21 20 19 18 17 17 17 18 18 18 17 16 15 15 16 16 16 15 14
34 33 32 31 30 30 30 31 31 32 33 33 33 32 32 32 31 31 31 30 29 27 25 25 29 34 37 36 35 34 33 31 30 30 29 28 27 27 27 27 26 25 24 23 23 22 21 20 18 18 18 18 19 19 18 17 16 16 16 17 17 16 15
35 34 34 33 31 30 31 31 32 33 35 35 35 34 33 32 32 32 31 30 29 29 28 27 27 30 35 38 38 37 35 33 32 31 30 30 29 29 30 29 28 27 26 25 24 23 22 21 20 19 19 20 20 20 20 19 17 16 16 17 18 17 16
38 36 36 36 33 31 31 32 33 34 36 37 37 36 35 34 34 33 32 31 31 30 30 30 29 29 32 37 39 39 38 37 35 33 32 32 32 32 32 31 30 29 27 26 25 24 23 22 21 20 20 21 22 22 21 20 19 17 17 18 18 18 17
40 40 39 40 38 33 32 34 35 34 35 38 38 38 37 36 35 35 33 32 32 31 30 30 30 30 31 34 38 40 40 39 38 36 35 35 34 34 33 33 32 30 29 28 27 27 25 23 22 22 22 23 23 23 23 22 20 19 18 18 19 19 19
42 43 43 44 43 38 34 36 38 36 36 37 39 40 40 38 37 36 35 33 33 32 31 30 30 29 29 31 35 39 41 41 41 40 39 38 37 35 34 33 32 32 32 31 30 28 27 26 25 25 25 25 25 25 24 23 21 20 19 19 20 21 21
43 45 46 46 46 42 38 39 40 39 38 37 38 40 40 40 39 38 37 35 34 33 33 33 32 31 30 29 31 36 40 42 42 42 42 41 39 37 35 34 34 33 33 33 31 31 30 29 28 27 27 26 26 26 26 25 23 22 21 20 21 22 22
44 46 47 48 47 44 42 41 43 43 41 39 38 39 40 41 40 40 39 37 36 36 36 35 35 34 32 30 29 32 37 41 42 43 43 42 41 40 38 36 36 35 34 34 33 33 32 31 30 29 28 27 28 27 27 26 24 24 23 22 22 23 24
46 47 48 48 48 47 44 44 45 46 45 43 41 40 40 41 41 41 41 40 39 38 38 37 37 36 34 33 31 31 33 37 41 43 43 43 42 41 40 39 38 37 36 35 35 34 34 33 31 30 30 29 29 28 27 26 26 25 25 24 23 24 25
47 47 48 48 49 48 47 46 47 49 49 47 45 43 42 42 42 41 41 41 41 40 40 39 39 38 36 35 34 33 32 34 38 41 42 42 43 42 42 41 40 39 38 37 36 36 35 34 33 32 31 31 30 29 28 27 27 27 26 25 25 25 25
46 46 47 48 49 49 48 47 47 50 52 52 50 47 46 45 45 44 43 42 42 42 41 42 42 41 38 37 36 34 33 32 34 37 40 41 42 43 43 43 42 41 40 39 38 37 36 35 35 34 33 32 31 30 30 29 29 29 28 27 27 26 26
45 45 46 47 49 49 49 48 48 49 52 54 53 51 49 48 48 47 46 45 44 43 43 43 44 42 39 38 37 35 34 33 32 33 36 39 41 42 43 43 43 42 42 41 40 39 37 37 36 35 35 34 33 32 31 31 31 30 30 29 28 28 28
46 46 46 47 48 49 49 49 49 49 51 53 54 54 53 51 50 50 49 48 46 45 44 43 42 41 39 38 38 37 37 35 32 32 33 36 38 40 41 42 42 42 42 42 41 40 39 38 38 37 36 35 34 33 32 31 31 31 30 30 30 30 29
46 47 47 48 49 49 49 50 51 51 52 52 53 54 55 54 53 53 53 51 48 45 44 43 41 41 41 40 40 40 39 37 35 33 33 34 35 36 38 40 41 42 43 43 43 42 41 41 40 39 38 37 35 34 32 32 32 32 31 30 31 31 30
46 47 49 50 50 50 50 52 53 53 53 53 53 53 54 55 55 55 55 54 51 47 45 43 42 42 42 41 42 42 41 39 38 36 35 35 34 35 37 39 40 42 43 43 44 43 43 43 42 41 40 39 37 35 33 32 33 33 32 31 32 32 31
48 48 50 52 53 53 53 54 55 54 54 54 54 54 54 54 55 56 56 56 54 51 47 45 44 44 44 44 44 43 42 41 40 39 39 38 37 37 37 39 40 41 42 43 44 44 44 45 44 43 42 41 38 36 34 33 33 33 32 32 32 32 31
51 51 51 53 54 55 55 55 56 57 56 56 56 56 56 55 55 56 56 56 56 54 51 48 47 47 47 47 46 44 43 44 43 43 43 42 41 41 40 39 39 40 41 43 44 44 45 45 45 44 43 42 40 38 36 35 34 34 33 33 33 33 31
55 54 54 55 56 57 58 58 58 58 59 59 58 57 58 57 56 56 57 56 56 55 53 51 50 49 49 49 48 47 46 46 46 46 47 47 46 45 44 42 41 40 40 42 43 44 45 45 45 44 43 42 41 40 39 37 36 36 36 35 35 34 33
58 58 58 58 58 59 59 60 59 59 60 61 61 60 59 59 59 59 59 57 56 55 55 53 51 50 50 51 51 50 49 48 48 48 50 52 52 49 47 46 44 42 41 42 42 44 44 45 45 44 43 43 42 42 41 40 39 39 39 38 37 36 34
60 60 61 61 62 62 62 62 62 61 60 61 63 62 61 60 60 60 60 59 58 56 55 54 53 51 51 51 52 53 53 51 50 50 50 52 53 51 48 49 48 45 43 43 43 44 44 44 45 44 44 43 42 42 41 41 41 41 41 40 39 38 37
62 63 63 64 65 65 65 64 64 63 62 62 63 63 63 62 62 61 61 61 60 58 56 55 54 53 52 51 51 52 53 53 53 53 52 50 49 48 46 49 51 48 45 44 45 44 44 44 43 43 43 43 42 41 40 40 40 41 41 41 41 40 39
64 65 65 66 67 68 69 68 67 66 65 64 64 63 63 62 63 64 63 63 62 61 59 58 56 55 54 53 51 51 52 53 53 54 53 50 49 47 45 46 51 53 49 47 46 44 43 43 42 42 41 41 41 40 39 39 39 40 40 41 41 41 40
65 66 67 68 69 70 72 72 71 70 69 68 67 66 64 62 62 64 65 65 64 63 62 61 59 57 57 56 54 53 52 53 54 54 52 49 48 48 46 46 51 54 52 49 47 45 42 41 40 39 38 38 39 39 39 39 39 40 39 39 39 39 39
65 66 67 69 70 71 72 74 75 74 72 71 71 70 69 66 63 62 64 66 65 64 63 63 62 60 59 58 57 55 53 52 53 53 51 49 49 48 45 43 44 47 48 47 46 45 42 40 39 38 37 36 37 38 39 39 39 39 38 37 37 37 37
69 68 68 69 71 72 72 73 75 77 76 76 75 74 74 73 69 65 63 64 65 65 64 64 64 63 61 60 58 56 54 52 52 51 51 51 50 49 47 44 40 39 42 43 43 44 43 40 40 38 36 35 36 36 38 39 39 39 38 37 37 37 37
73 72 70 70 71 73 74 74 75 77 78 79 79 79 79 78 77 73 67 64 65 65 64 65 66 66 65 63 61 58 56 53 52 51 51 52 52 51 51 49 45 42 41 40 41 43 44 42 40 39 37 35 35 36 37 38 38 36 36 36 37 37 38
76 77 76 74 73 74 75 76 76 76 78 79 80 82 83 82 81 79 75 70 68 66 64 63 64 66 68 67 64 61 60 58 55 53 52 52 51 50 50 49 48 46 44 42 40 42 45 45 42 40 39 38 36 36 37 36 34 34 34 37 38 38 39
71 76 79 80 78 77 76 77 78 78 78 79 80 82 84 85 84 83 82 78 74 71 68 65 62 61 65 69 68 65 62 61 59 57 56 54 51 50 49 48 47 48 47 45 43 42 44 46 45 42 42 41 38 37 36 34 33 34 36 38 38 38 39
57 65 73 79 82 82 81 80 80 79 79 79 80 82 84 86 86 86 85 84 81 77 75 72 67 62 60 63 66 66 64 63 61 60 59 57 54 51 50 49 48 48 47 46 46 44 43 44 45 45 44 43 40 38 37 36 35 35 37 37 37 38 39
46 52 59 68 76 82 85 85 84 82 81 80 80 81 83 85 87 88 88 88 86 83 80 78 76 71 65 62 61 62 62 63 63 62 60 59 56 54 53 52 50 49 48 47 47 47 44 43 44 46 46 45 42 40 39 38 37 36 37 37 38 38 39
Wind_Direction
204 205 204 201 195 192 193 192 191 193 195 195 196 196 192 191 198 200 199 195 192 191 192 194 196 199 202 203 197 188 185 188 190 187 182 178 176 179 183 185 186 186 186 187 188 186 185 187 183 178 176 175 175 176 177 176 176 175 176 178 177 176 175
206 206 208 207 203 198 195 193 192 191 190 191 194 196 194 193 197 201 202 200 196 193 194 195 197 199 202 203 199 192 189 192 194 192 189 185 183 185 189 190 189 188 189 195 200 198 195 194 192 189 187 185 184 184 184 185 186 186 186 186 185 185 184
208 208 209 210 208 204 200 197 196 193 190 189 190 193 194 195 197 201 203 203 200 197 196 197 200 202 203 203 201 196 193 196 198 196 194 193 192 192 194 195 193 191 191 197 204 206 204 202 200 200 198 195 194 193 193 194 195 195 195 194 194 192 191
209 208 209 211 211 210 206 201 199 197 193 190 189 189 192 195 198 201 204 205 203 201 199 200 201 203 204 204 203 199 196 198 202 201 198 197 197 197 199 200 198 196 197 201 205 208 210 209 208 209 209 206 204 202 201 201 201 202 202 201 200 199 196
209 208 207 209 211 212 211 208 205 201 197 194 192 191 193 196 198 200 203 206 206 205 204 203 204 204 205 205 204 202 199 200 204 205 201 199 198 199 203 205 204 203 204 206 208 210 213 214 214 215 216 214 211 207 207 207 206 206 206 206 205 203 200
206 206 206 207 209 212 213 214 213 208 201 199 197 196 197 200 200 200 202 205 206 207 208 208 207 207 206 207 207 205 202 202 205 207 204 200 198 199 202 206 207 208 209 211 212 213 214 217 217 217 218 217 214 210 208 209 209 208 207 207 206 204 201
202 203 205 207 209 210 213 218 220 215 209 206 203 202 202 203 204 203 203 205 206 208 209 210 211 210 209 209 209 208 206 204 206 208 206 202 200 200 202 204 207 209 211 213 216 216 216 218 220 220 219 218 215 212 210 210 210 209 208 207 206 204 202
200 201 204 207 208 209 212 217 221 220 217 213 210 208 207 206 206 205 203 204 206 207 209 211 212 212 212 212 211 210 210 208 208 210 208 204 201 202 203 204 206 208 209 212 216 218 218 219 220 220 221 219 217 215 214 214 212 211 209 208 206 205 203
202 203 204 206 208 210 211 213 215 219 221 219 215 214 212 209 209 209 207 205 206 206 207 211 213 212 213 213 212 212 212 211 211 212 211 208 205 204 205 206 207 207 207 209 213 215 217 219 218 218 219 220 218 217 217 217 216 214 211 208 208 207 205
204 205 205 205 208 210 213 213 213 215 220 222 220 217 217 216 214 214 214 211 208 207 207 212 215 215 214 214 214 214 213 212 213 214 214 212 210 208 208 208 208 207 206 208 210 212 214 215 215 214 215 217 218 218 218 220 220 218 214 210 210 209 209
206 208 207 206 207 210 214 216 215 214 217 223 225 221 218 220 221 220 219 215 213 212 210 212 216 218 217 216 216 215 215 214 214 214 215 215 214 212 212 211 210 208 208 208 209 211 212 213 212 211 210 213 215 216 217 219 222 222 218 214 212 212 213
209 209 210 210 209 210 214 216 218 217 217 221 227 227 222 221 223 224 223 220 218 217 215 214 215 217 219 218 218 217 216 215 215 214 215 217 217 216 215 214 213 211 210 210 210 212 213 212 212 210 209 211 214 216 217 218 221 223 222 218 216 216 216
212 211 214 216 215 214 217 218 219 219 219 220 224 227 227 224 223 224 225 223 222 221 221 221 220 220 221 220 218 218 218 217 216 215 216 217 219 219 218 217 216 215 214 213 212 213 213 213 212 211 210 211 213 216 218 218 219 223 224 223 221 220 220
216 215 216 219 220 221 222 221 220 220 220 221 221 225 228 228 227 226 225 225 224 224 225 228 228 228 228 225 222 221 220 220 219 218 217 218 220 222 222 221 220 219 218 217 215 214 214 214 214 212 211 211 212 215 218 218 219 222 225 226 226 225 225
222 220 221 222 224 226 226 223 222 221 220 221 222 223 226 229 230 229 227 226 225 224 223 226 229 230 231 230 228 225 223 222 222 221 220 220 220 222 224 224 224 223 222 221 219 217 217 216 216 215 214 213 213 215 217 217 218 222 225 227 229 229 229
230 227 227 227 228 230 228 225 223 222 221 221 221 223 225 228 229 231 231 228 227 226 225 225 227 230 231 232 231 230 227 226 225 225 224 223 222 222 223 225 226 226 225 225 223 222 221 220 219 218 217 217 217 217 218 218 219 222 225 227 229 231 232
234 234 232 231 231 232 231 228 225 223 222 222 222 222 224 227 228 230 232 231 229 228 227 226 226 228 230 231 230 230 230 229 228 228 228 227 226 225 224 224 226 227 228 227 227 226 225 224 223 222 221 221 221 220 219 220 222 224 226 228 229 231 232
234 235 235 234 233 233 233 231 227 225 224 224 224 224 225 227 228 229 231 233 233 231 230 229 227 226 228 231 232 231 230 230 230 230 230 229 229 228 227 225 225 226 228 229 229 228 228 227 226 226 225 224 223 223 222 222 224 226 227 228 230 230 231
233 233 234 235 235 234 235 233 230 227 226 226 226 226 226 227 229 228 228 231 233 234 233 232 231 229 227 229 233 234 234 232 232 232 232 232 231 231 230 229 226 226 227 229 230 230 230 228 228 227 228 227 226 225 225 224 226 228 228 229 230 231 231
234 232 232 233 234 235 235 234 231 229 228 228 228 228 227 228 229 229 228 229 232 235 235 235 235 233 230 230 232 235 237 236 234 234 234 235 235 236 235 234 232 229 228 228 230 231 232 231 230 229 229 228 227 227 226 227 228 229 230 231 232 232 232
233 233 232 232 232 233 234 233 231 230 230 230 229 229 229 228 229 230 229 229 231 234 236 237 238 237 235 235 235 235 237 239 238 236 235 235 236 238 240 241 240 237 234 232 231 231 232 233 233 233 232 231 229 229 228 229 231 232 233 233 234 235 235
230 232 233 233 232 231 230 230 230 230 231 231 231 231 231 231 231 231 231 231 231 234 237 238 238 238 237 236 237 238 238 239 239 238 236 236 235 236 238 241 243 243 240 238 236 234 233 233 234 234 235 234 233 232 231 231 233 235 235 236 237 239 239
229 229 231 233 234 232 228 227 228 230 232 232 233 232 232 232 233 233 233 233 232 233 236 238 238 239 238 237 237 239 239 240 240 240 240 239 237 235 234 236 238 241 242 241 240 239 237 236 235 235 235 235 235 234 233 233 235 237 237 237 238 241 242
231 230 230 232 234 234 231 228 227 229 231 233 234 235 234 233 234 235 236 236 235 233 234 236 237 238 239 239 238 239 240 240 241 241 241 241 240 237 236 235 235 237 239 241 241 241 240 239 238 237 237 237 238 237 235 235 236 238 239 239 240 241 243
233 232 232 232 233 235 235 233 230 229 230 232 233 236 237 235 235 235 236 238 238 236 235 236 237 238 238 239 239 239 239 239 239 239 240 240 240 238 236 235 235 236 237 239 240 241 241 241 241 240 240 240 240 240 238 237 238 240 240 240 241 242 243
235 233 233 233 233 234 236 236 235 232 231 231 232 234 237 238 237 237 237 238 240 239 237 237 238 238 238 239 239 238 238 238 238 238 238 238 238 237 235 234 234 236 237 238 239 240 241 241 241 242 242 241 241 241 241 239 239 240 241 241 242 243 243
236 234 233 233 233 234 235 237 238 237 234 233 233 233 234 236 237 238 238 238 239 240 239 238 238 238 238 239 240 239 239 239 238 239 239 237 236 236 236 235 235 235 236 237 238 239 239 240 240 240 240 240 240 240 241 240 240 241 242 243 244 244 245
238 236 235 234 233 234 234 235 237 239 238 236 235 235 234 234 235 237 239 240 240 240 240 240 239 240 240 241 241 241 241 242 241 241 241 238 235 235 236 236 237 236 235 236 238 240 240 240 240 239 239 239 238 239 240 240 241 242 243 244 245 246 246
239 238 236 235 234 233 233 234 236 238 239 238 238 238 237 235 235 235 237 239 240 241 241 241 241 241 242 241 241 241 242 243 243 244 243 241 240 241 242 241 238 237 236 236 237 240 241 242 243 242 240 238 238 238 239 240 241 243 244 245 246 247 247
242 240 238 237 236 234 232 233 234 236 237 238 239 240 240 239 238 237 237 238 240 241 241 242 242 241 242 243 241 240 242 244 245 245 245 244 244 245 248 245 239 236 236 236 236 237 239 242 244 244 242 239 238 238 239 240 241 242 243 244 245 247 248
243 242 240 239 238 236 233 232 232 234 236 237 238 239 240 241 241 241 240 239 239 240 241 241 242 242 242 243 243 241 241 243 245 246 246 246 244 244 248 248 242 237 236 236 235 236 238 240 242 244 243 240 239 238 239 239 240 241 243 244 246 247 249
245 244 242 240 239 238 236 233 232 233 234 236 236 237 239 240 240 241 243 241 239 239 240 241 241 241 241 242 243 242 240 241 243 245 245 245 245 244 245 247 246 243 239 236 233 234 237 240 241 241 241 240 240 239 238 238 239 241 242 244 246 247 249
247 246 244 242 240 239 238 236 234 233 234 235 235 235 236 238 238 238 240 243 242 241 241 241 240 240 241 242 241 240 240 241 242 243 244 244 245 244 242 243 247 248 245 241 236 233 234 237 239 239 238 239 239 239 238 238 238 239 241 243 245 246 248
248 247 245 244 243 241 240 238 237 235 234 235 236 235 235 236 238 237 237 239 242 243 243 243 242 241 241 242 242 240 240 240 241 243 244 244 244 243 243 245 248 248 248 247 243 237 232 233 235 236 235 235 237 237 237 237 238 239 241 243 243 244 245
248 248 247 246 244 243 242 241 240 238 236 235 236 236 235 234 236 238 236 236 238 240 242 243 244 243 242 241 242 242 241 241 241 242 243 244 244 243 243 245 246 245 245 247 248 242 235 232 232 232 231 232 234 235 236 236 237 238 239 240 240 242 243
248 247 247 246 245 244 244 243 242 241 239 237 236 236 235 234 235 236 237 236 236 237 238 239 241 243 242 240 241 242 242 242 241 242 242 244 245 244 242 243 245 244 244 246 250 247 238 233 232 232 231 230 231 233 234 234 233 234 237 238 240 242 244
252 249 247 247 246 245 244 244 243 242 241 240 238 237 236 235 234 235 236 237 236 236 236 237 239 241 242 241 240 241 242 242 242 241 242 243 244 243 242 243 244 245 245 246 248 248 241 235 234 235 234 233 231 232 233 232 230 233 237 239 241 243 244
259 255 252 249 247 246 245 244 244 243 242 242 241 239 237 236 235 235 235 237 237 237 236 237 238 240 241 241 240 241 242 242 242 241 241 242 242 241 241 241 242 244 245 245 246 247 245 241 239 238 237 236 234 233 234 234 231 231 235 238 240 241 243